Location: *
(45.1961°N, 1.9694°E)
Time: 08:19:17
(UTC+00:00)

Cosmos 2181 Rocket - Pass Details

Date: 25 August 2019
Orbit: 953 x 1014 km, 82.9° (Epoch: 21 September)

Event Time Altitude Azimuth Distance (km) Brightness Sun altitude
Exits shadow 23:16:43 55° 313° (NW) 1,144 4.4 -33.6°
Drops below altitude 10° 23:22:03 10° 1° (N) 2,706 7.1 -33.7°
Sets 23:24:37 0° 6° (N) 3,664 8.0 -33.8°
